�������l�o���
Date,Time,MP-1(��Sv/h),MP-2(��Sv/h),MP-3(��Sv/h),MP-4(��Sv/h),MP-5(��Sv/h),MP-6(��Sv/h),MP-7(��Sv/h),MP-8(��Sv/h),����,����(m/s),���J
2019/04/07,00:00,0.784,1.152,0.794,1.479,1.070,0.444,0.785,0.743,���k��,5.0,��
2019/04/07,00:10,0.783,1.153,0.794,1.479,1.070,0.444,0.787,0.743,���k��,3.4,��
2019/04/07,00:20,0.784,1.155,0.795,1.479,1.070,0.444,0.786,0.742,�k��,3.3,��
2019/04/07,00:30,0.782,1.153,0.794,1.479,1.072,0.443,0.787,0.742,�k��,3.2,��
2019/04/07,00:40,0.784,1.154,0.793,1.477,1.070,0.442,0.786,0.744,�k��,4.1,��
2019/04/07,00:50,0.783,1.152,0.795,1.478,1.070,0.445,0.787,0.742,�k��,3.9,��
2019/04/07,01:00,0.784,1.153,0.797,1.476,1.071,0.443,0.786,0.744,�k�k��,3.1,��
2019/04/07,01:10,0.785,1.150,0.792,1.478,1.069,0.443,0.786,0.744,�k�k��,5.0,��
2019/04/07,01:20,0.782,1.153,0.795,1.478,1.071,0.444,0.784,0.745,�k,3.8,��
2019/04/07,01:30,0.785,1.153,0.794,1.479,1.069,0.443,0.785,0.744,�k�k��,3.6,��
2019/04/07,01:40,0.785,1.154,0.795,1.476,1.069,0.443,0.786,0.744,�k,3.2,��
2019/04/07,01:50,0.782,1.151,0.793,1.478,1.071,0.445,0.787,0.743,�k�k��,1.7,��
2019/04/07,02:00,0.784,1.151,0.793,1.480,1.072,0.443,0.787,0.744,�k�k��,1.5,��
2019/04/07,02:10,0.785,1.153,0.795,1.477,1.070,0.445,0.786,0.742,�k��,2.2,��
2019/04/07,02:20,0.783,1.151,0.794,1.479,1.070,0.444,0.785,0.743,���k��,3.6,��
2019/04/07,02:30,0.784,1.150,0.796,1.479,1.071,0.444,0.786,0.743,���k��,4.3,��
2019/04/07,02:40,0.782,1.154,0.795,1.477,1.070,0.443,0.786,0.744,�k��,4.5,��
2019/04/07,02:50,0.783,1.153,0.795,1.478,1.068,0.443,0.785,0.744,�k��,3.7,��
2019/04/07,03:00,0.784,1.152,0.794,1.477,1.071,0.443,0.785,0.745,�k��,2.9,��
2019/04/07,03:10,0.783,1.155,0.794,1.478,1.073,0.445,0.786,0.744,�k��,3.8,��
2019/04/07,03:20,0.783,1.154,0.794,1.479,1.072,0.444,0.787,0.744,�k,2.2,��
2019/04/07,03:30,0.783,1.153,0.794,1.479,1.071,0.444,0.786,0.743,�k��,1.2,��
2019/04/07,03:40,0.785,1.153,0.794,1.479,1.070,0.444,0.785,0.745,�k�k��,2.3,��
2019/04/07,03:50,0.782,1.153,0.795,1.480,1.073,0.444,0.785,0.744,�k�k��,2.9,��
2019/04/07,04:00,0.785,1.151,0.794,1.478,1.071,0.442,0.787,0.742,�k,2.9,��
2019/04/07,04:10,0.784,1.154,0.796,1.477,1.070,0.445,0.787,0.744,�k�k��,3.7,��
2019/04/07,04:20,0.783,1.154,0.795,1.478,1.069,0.445,0.786,0.743,�k��,3.5,��
2019/04/07,04:30,0.783,1.153,0.793,1.480,1.068,0.443,0.786,0.744,�k�k��,3.9,��
2019/04/07,04:40,0.782,1.153,0.796,1.479,1.071,0.444,0.788,0.744,�k��,4.3,��
2019/04/07,04:50,0.784,1.152,0.795,1.479,1.073,0.443,0.784,0.744,�k��,2.8,��
2019/04/07,05:00,0.785,1.151,0.795,1.481,1.070,0.444,0.785,0.743,�k��,0.8,��
2019/04/07,05:10,0.784,1.153,0.796,1.478,1.072,0.444,0.786,0.744,-,CALM,��
2019/04/07,05:20,0.785,1.151,0.797,1.477,1.071,0.444,0.787,0.743,-,CALM,��
2019/04/07,05:30,0.784,1.152,0.795,1.476,1.071,0.444,0.786,0.743,-,CALM,��
2019/04/07,05:40,0.783,1.151,0.796,1.478,1.071,0.444,0.785,0.744,��,1.2,��
2019/04/07,05:50,0.785,1.153,0.795,1.478,1.072,0.445,0.785,0.743,�쓌,1.7,��
2019/04/07,06:00,0.784,1.153,0.794,1.478,1.071,0.443,0.786,0.744,�쓌,2.3,��
2019/04/07,06:10,0.781,1.152,0.793,1.477,1.070,0.444,0.790,0.742,���쓌,3.2,��
2019/04/07,06:20,0.784,1.154,0.794,1.478,1.071,0.442,0.783,0.743,���쓌,2.0,��
2019/04/07,06:30,0.782,1.150,0.795,1.476,1.071,0.442,0.786,0.743,��쓌,1.5,��
2019/04/07,06:40,0.782,1.151,0.794,1.478,1.069,0.444,0.783,0.745,��쓌,1.1,��
2019/04/07,06:50,0.782,1.150,0.794,1.477,1.071,0.443,0.786,0.742,���쓌,1.4,��
2019/04/07,07:00,0.785,1.155,0.794,1.479,1.071,0.444,0.784,0.742,��쓌,2.5,��
2019/04/07,07:10,0.784,1.152,0.793,1.477,1.072,0.443,0.784,0.744,��쓌,3.5,��
2019/04/07,07:20,0.785,1.151,0.793,1.474,1.071,0.443,0.787,0.745,��쓌,4.3,��
2019/04/07,07:30,0.784,1.152,0.796,1.476,1.072,0.443,0.786,0.743,��쓌,3.4,��
2019/04/07,07:40,0.782,1.152,0.793,1.476,1.074,0.443,0.786,0.743,��쓌,3.9,��
2019/04/07,07:50,0.783,1.151,0.792,1.478,1.070,0.444,0.786,0.745,��쓌,4.6,��
2019/04/07,08:00,0.779,1.151,0.793,1.478,1.073,0.443,0.782,0.741,��쓌,2.9,��
2019/04/07,08:10,0.783,1.154,0.795,1.475,1.071,0.444,0.784,0.743,��,3.9,��
2019/04/07,08:20,0.781,1.154,0.795,1.477,1.073,0.443,0.784,0.745,��쓌,5.5,�L
2019/04/07,08:30,0.783,1.154,0.795,1.477,1.071,0.443,0.783,0.743,��쓌,5.7,�L
2019/04/07,08:40,0.784,1.155,0.793,1.477,1.069,0.446,0.785,0.742,��쓌,4.8,��
2019/04/07,08:50,0.784,1.152,0.793,1.476,1.072,0.443,0.785,0.743,��,4.3,��
2019/04/07,09:00,0.781,1.153,0.794,1.476,1.070,0.444,0.784,0.743,��,3.8,�L
2019/04/07,09:10,0.782,1.153,0.793,1.477,1.071,0.445,0.784,0.743,��쓌,4.4,��
2019/04/07,09:20,0.781,1.154,0.794,1.481,1.071,0.443,0.785,0.743,��쓌,4.1,��
2019/04/07,09:30,0.783,1.156,0.794,1.476,1.072,0.446,0.786,0.742,��쓌,3.9,��
2019/04/07,09:40,0.783,1.156,0.796,1.480,1.073,0.442,0.784,0.743,��쓌,5.6,��
2019/04/07,09:50,0.785,1.155,0.795,1.477,1.073,0.445,0.786,0.744,��쓌,5.4,��
2019/04/07,10:00,0.784,1.156,0.797,1.479,1.073,0.444,0.785,0.745,��쓌,6.0,��
2019/04/07,10:10,0.786,1.156,0.797,1.477,1.072,0.445,0.784,0.744,��쓌,4.4,��
2019/04/07,10:20,0.785,1.158,0.796,1.478,1.072,0.445,0.784,0.740,�쓌,4.3,��
2019/04/07,10:30,0.789,1.158,0.798,1.479,1.071,0.445,0.785,0.742,�쓌,3.0,��
2019/04/07,10:40,0.786,1.156,0.798,1.479,1.073,0.447,0.785,0.743,��쓌,5.5,��
2019/04/07,10:50,0.785,1.154,0.794,1.480,1.070,0.444,0.784,0.741,��쓌,6.4,��
2019/04/07,11:00,0.785,1.153,0.796,1.480,1.070,0.443,0.785,0.740,�쓌,2.9,��
2019/04/07,11:10,0.782,1.154,0.794,1.480,1.070,0.444,0.786,0.742,��쓌,4.3,��
2019/04/07,11:20,0.782,1.151,0.794,1.479,1.071,0.445,0.786,0.741,��쓌,7.1,��
2019/04/07,11:30,0.782,1.154,0.795,1.480,1.067,0.443,0.785,0.742,��쓌,8.0,��
2019/04/07,11:40,0.783,1.156,0.794,1.477,1.071,0.445,0.787,0.741,��쓌,9.0,��
2019/04/07,11:50,0.782,1.154,0.794,1.482,1.069,0.444,0.786,0.740,��쓌,8.9,��
2019/04/07,12:00,0.784,1.153,0.794,1.481,1.072,0.446,0.785,0.741,��쓌,9.0,��
2019/04/07,12:10,0.783,1.154,0.794,1.480,1.070,0.444,0.787,0.743,��쓌,10.4,��
2019/04/07,12:20,0.784,1.155,0.794,1.481,1.072,0.446,0.787,0.740,��쓌,7.6,��
2019/04/07,12:30,0.783,1.154,0.795,1.480,1.070,0.445,0.787,0.741,��쓌,8.3,��
2019/04/07,12:40,0.785,1.157,0.794,1.482,1.072,0.444,0.788,0.742,��쓌,8.5,��
2019/04/07,12:50,0.784,1.156,0.794,1.481,1.071,0.444,0.787,0.742,��쓌,8.2,�L
2019/04/07,13:00,0.784,1.154,0.793,1.481,1.070,0.445,0.787,0.741,��쓌,8.9,��
2019/04/07,13:10,0.785,1.154,0.796,1.480,1.071,0.445,0.786,0.740,��쓌,8.9,��
2019/04/07,13:20,0.784,1.156,0.794,1.480,1.072,0.444,0.788,0.743,��쓌,8.8,��
2019/04/07,13:30,0.785,1.155,0.795,1.481,1.075,0.444,0.787,0.741,��쓌,9.4,��
2019/04/07,13:40,0.785,1.157,0.793,1.482,1.075,0.446,0.787,0.742,��쓌,8.5,��
2019/04/07,13:50,0.785,1.156,0.795,1.481,1.071,0.443,0.787,0.742,��쓌,8.3,��
2019/04/07,14:00,0.783,1.155,0.795,1.481,1.071,0.445,0.787,0.742,��쓌,10.2,��
2019/04/07,14:10,0.785,1.154,0.797,1.483,1.070,0.445,0.787,0.741,��,7.9,��
2019/04/07,14:20,0.783,1.154,0.797,1.483,1.072,0.443,0.789,0.740,��,8.2,��
2019/04/07,14:30,0.784,1.154,0.795,1.481,1.072,0.444,0.788,0.741,��쓌,8.5,��
2019/04/07,14:40,0.783,1.157,0.798,1.479,1.073,0.446,0.788,0.741,��쓌,7.3,��
2019/04/07,14:50,0.784,1.156,0.795,1.480,1.072,0.447,0.787,0.743,��쓌,9.6,��
2019/04/07,15:00,0.782,1.157,0.796,1.481,1.073,0.447,0.787,0.740,��쓌,8.2,��
2019/04/07,15:10,0.785,1.156,0.795,1.481,1.073,0.446,0.788,0.741,��쓌,9.1,��
2019/04/07,15:20,0.784,1.156,0.796,1.480,1.071,0.447,0.788,0.740,��쓌,11.0,��
2019/04/07,15:30,0.784,1.154,0.795,1.482,1.073,0.445,0.787,0.740,�쓌,7.6,��
2019/04/07,15:40,0.783,1.153,0.796,1.479,1.073,0.447,0.786,0.740,�쓌,5.7,��
2019/04/07,15:50,0.783,1.155,0.798,1.479,1.073,0.447,0.787,0.741,��쓌,8.1,��
2019/04/07,16:00,0.784,1.154,0.797,1.478,1.072,0.448,0.788,0.743,��쓌,6.8,��
2019/04/07,16:10,0.785,1.155,0.796,1.479,1.073,0.447,0.787,0.743,��쓌,5.4,��
2019/04/07,16:20,0.785,1.156,0.796,1.479,1.073,0.448,0.787,0.744,��쓌,8.2,��
2019/04/07,16:30,0.783,1.157,0.799,1.479,1.071,0.449,0.786,0.742,��쓌,6.8,��
2019/04/07,16:40,0.785,1.155,0.796,1.478,1.072,0.446,0.787,0.743,��쓌,7.0,��
2019/04/07,16:50,0.785,1.159,0.795,1.477,1.072,0.447,0.786,0.743,��쓌,6.8,��
2019/04/07,17:00,0.784,1.156,0.796,1.478,1.069,0.447,0.789,0.745,��쓌,7.4,��
2019/04/07,17:10,0.783,1.160,0.797,1.478,1.073,0.448,0.789,0.745,��쓌,7.3,��
2019/04/07,17:20,0.784,1.158,0.796,1.479,1.070,0.447,0.787,0.745,��,2.9,��
2019/04/07,17:30,0.787,1.159,0.797,1.475,1.072,0.447,0.788,0.746,��,4.0,��
2019/04/07,17:40,0.785,1.156,0.795,1.479,1.070,0.449,0.787,0.746,��쐼,3.6,��
2019/04/07,17:50,0.789,1.156,0.797,1.480,1.072,0.448,0.785,0.743,�쐼,3.8,��
2019/04/07,18:00,0.788,1.159,0.799,1.477,1.071,0.449,0.786,0.744,���쐼,2.6,��
2019/04/07,18:10,0.788,1.158,0.800,1.482,1.070,0.448,0.787,0.745,��,6.0,��
2019/04/07,18:20,0.789,1.156,0.798,1.481,1.072,0.447,0.787,0.743,��,7.0,��
2019/04/07,18:30,0.788,1.158,0.798,1.477,1.075,0.448,0.788,0.746,���쐼,7.1,��
2019/04/07,18:40,0.787,1.156,0.800,1.481,1.073,0.449,0.790,0.746,��,6.6,��
2019/04/07,18:50,0.787,1.154,0.797,1.480,1.075,0.450,0.789,0.744,��,4.6,��
2019/04/07,19:00,0.785,1.153,0.797,1.482,1.073,0.447,0.791,0.746,�k�k��,3.0,��
2019/04/07,19:10,0.787,1.157,0.798,1.477,1.074,0.448,0.788,0.745,�k,4.5,��
2019/04/07,19:20,0.787,1.157,0.798,1.480,1.074,0.447,0.789,0.745,�k,5.6,��
2019/04/07,19:30,0.787,1.155,0.796,1.482,1.075,0.446,0.788,0.745,�k,5.3,��
2019/04/07,19:40,0.786,1.157,0.797,1.480,1.075,0.447,0.788,0.746,�k,5.0,��
2019/04/07,19:50,0.786,1.156,0.797,1.482,1.073,0.445,0.787,0.744,�k�k��,4.0,��
2019/04/07,20:00,0.785,1.153,0.797,1.480,1.074,0.446,0.788,0.745,�k,3.5,��
2019/04/07,20:10,0.784,1.156,0.798,1.478,1.072,0.446,0.788,0.747,�k��,2.9,��
2019/04/07,20:20,0.786,1.156,0.796,1.480,1.073,0.446,0.787,0.744,��,2.5,��
2019/04/07,20:30,0.785,1.154,0.798,1.480,1.073,0.444,0.789,0.743,���k��,2.2,��
2019/04/07,20:40,0.785,1.155,0.795,1.481,1.071,0.446,0.788,0.745,�k��,3.3,��
2019/04/07,20:50,0.785,1.155,0.796,1.479,1.077,0.444,0.786,0.744,��,1.1,��
2019/04/07,21:00,0.783,1.155,0.798,1.479,1.072,0.444,0.788,0.744,�k�k��,3.0,��
2019/04/07,21:10,0.787,1.155,0.797,1.479,1.073,0.444,0.787,0.746,�k�k��,2.8,��
2019/04/07,21:20,0.786,1.154,0.797,1.477,1.072,0.445,0.786,0.744,�k�k��,1.2,��
2019/04/07,21:30,0.784,1.153,0.796,1.481,1.074,0.445,0.789,0.746,���k��,1.7,��
2019/04/07,21:40,0.783,1.155,0.795,1.479,1.072,0.445,0.786,0.746,��,2.0,��
2019/04/07,21:50,0.783,1.155,0.796,1.479,1.072,0.444,0.786,0.744,�쐼,0.9,��
2019/04/07,22:00,0.785,1.153,0.797,1.479,1.071,0.444,0.788,0.745,���k��,1.4,��
2019/04/07,22:10,0.785,1.154,0.797,1.480,1.072,0.446,0.787,0.744,�k�k��,2.3,��
2019/04/07,22:20,0.786,1.155,0.796,1.481,1.073,0.446,0.788,0.744,�k�k��,3.9,��
2019/04/07,22:30,0.784,1.155,0.798,1.479,1.072,0.444,0.787,0.743,�k�k��,4.0,��
2019/04/07,22:40,0.786,1.154,0.797,1.480,1.073,0.444,0.787,0.743,�k�k��,4.8,��
2019/04/07,22:50,0.783,1.154,0.795,1.478,1.072,0.445,0.785,0.743,�k,4.7,��
2019/04/07,23:00,0.783,1.154,0.795,1.478,1.070,0.444,0.787,0.743,�k�k��,5.3,��
2019/04/07,23:10,0.785,1.153,0.795,1.479,1.071,0.444,0.787,0.742,�k,6.1,��
2019/04/07,23:20,0.784,1.150,0.796,1.477,1.069,0.443,0.785,0.744,�k,5.2,��
2019/04/07,23:30,0.785,1.152,0.793,1.479,1.070,0.444,0.787,0.744,�k,6.5,��
2019/04/07,23:40,0.782,1.153,0.795,1.478,1.072,0.443,0.787,0.742,�k,6.9,��
2019/04/07,23:50,0.784,1.153,0.794,1.479,1.072,0.444,0.786,0.743,�k,7.6,��
